Location: Unspecified
(17.6330°N, 0.0000°E)
Time: 11:29:04
(UTC+00:00)

N. Korean satellite - Pass Details

Date: 28 May 2019
Orbit: 455 x 510 km, 97.2° (Epoch: 24 June)

Event Time Altitude Azimuth Distance (km) Brightness Sun altitude
Rises 04:58:54 0° 41° (NE) 2,472 11.6 -6.5°
Reaches altitude 10° 05:02:10 10° 76° (ENE) 1,590 10.9 -5.8°
Maximum altitude 05:03:22 11° 97° (E) 1,498 10.1 -5.5°
Drops below altitude 10° 05:04:33 10° 118° (ESE) 1,586 9.8 -5.3°
Sets 05:07:48 0° 153° (SSE) 2,455 10.2 -4.5°
